This demonstration page uses our WeatherBlox Daily Observations layout. Learn more.

Left ArrowRight Arrow

38.89511, -77.03637

Hourly Observations for March 28, 2021

Temp ( °F °C ) Dew Point ( °F °C ) Humidity (%) Winds ( mph kmh ) Pressure ( in mb ) Visibility ( mi km ) Precip ( " mm )
12:52 am 00:52 Cloudy 58 14.4 49 9.4 72 72 S 7 11 30.01 1016 10 16.0934 0 0
1:52 am 01:52 Cloudy 57 13.9 49 9.4 74 74 SSE 7 11 29.99 1016 10 16.0934 0 0
2:52 am 02:52 Cloudy 57 13.9 48 8.9 72 72 SSE 6 9 29.95 1014 10 16.0934 0 0
3:24 am 03:24 Cloudy 57 13.9 48 8.9 72 72 SSE 6 9 29.94 1014 10 16.0934 0 0
3:52 am 03:52 Cloudy 57 13.9 49 9.4 74 74 SSE 7 11 29.93 1013 10 16.0934 0 0
4:39 am 04:39 Cloudy 57 13.9 50 10 78 78 SSE 6 9 29.9 1013 10 16.0934 0 0
4:52 am 04:52 Cloudy 57 13.9 50 10 78 78 SE 5 7 29.89 1012 10 16.0934 0 0
5:52 am 05:52 Cloudy 57 13.9 51 10.6 81 81 S 7 11 29.88 1012 10 16.0934 0 0
6:37 am 06:37 Cloudy with Rain 56 13.3 53 11.7 90 90 S 8 13 29.89 1012 4 6.43736 0.03 0.762
6:50 am 06:50 Cloudy with Light Rain 55 13 54 12 94 94 S 10 17 29.88 1012 7 11.26538 0.08 2.032
6:52 am 06:52 Cloudy with Light Rain 56 13.3 53 11.7 90 90 S 10 17 29.88 1012 10 16.0934 0.08 2.032
7:13 am 07:13 Cloudy with Light Rain 56 13.3 54 12.2 93 93 SSW 8 13 29.9 1013 6 9.65604 0.03 0.762
7:52 am 07:52 Cloudy with Rain 56 13.3 54 12.2 93 93 S 7 11 29.88 1012 3 4.82802 0.12 3.048
8:25 am 08:25 Cloudy with Light Rain 57 13.9 55 12.8 93 93 S 5 7 29.84 1011 6 9.65604 0.09 2.286
8:47 am 08:47 Cloudy with Rain 57 14 55 13 94 94 S 8 13 29.83 1010 2.5 4.02335 0.11 2.794
8:52 am 08:52 Cloudy with Rain 57 13.9 55 12.8 93 93 SSE 9 15 29.83 1010 2.5 4.02335 0.13 3.302
8:54 am 08:54 Cloudy with Rain 57 13.9 56 13.3 96 96 S 12 19 29.84 1011 3 4.82802 0.001 0.001
9:11 am 09:11 Cloudy with Light Rain 58 14.4 56 13.3 93 93 SSE 8 13 29.81 1009 2.5 4.02335 0.05 1.27
9:21 am 09:21 Cloudy with Light Rain 58 14.4 57 13.9 97 97 S 7 11 29.81 1009 6 9.65604 0.06 1.524
9:52 am 09:52 Cloudy 59 15 57 13.9 93 93 S 9 15 29.78 1009 10 16.0934 0.1 2.54
10:52 am 10:52 Cloudy 60 15.6 58 14.4 93 93 S 13 20 29.77 1008 10 16.0934 0 0
11:52 am 11:52 Cloudy 60 15.6 58 14.4 93 93 S 9 15 29.72 1007 10 16.0934 0 0
12:21 pm 12:21 Cloudy 62 16.7 59 15 90 90 SSW 9 15 29.72 1006 10 16.0934 0.001 0.001
12:52 pm 12:52 Cloudy with Mist and Fog 62 16.7 60 15.6 93 93 SW 13 20 29.7 1006 5 8.0467 0.001 0.001
1:52 pm 13:52 Cloudy 66 18.9 62 16.7 87 87 SSW 13 20 29.63 1003 10 16.0934 0.001 0.001
2:52 pm 14:52 Cloudy 70 21.1 61 16.1 73 73 SSW 18 30 29.57 1001 10 16.0934 0 0
3:30 pm 15:30 Cloudy 71 21.7 61 16.1 71 71 SSW 18 30 29.55 1001 10 16.0934 0 0
3:52 pm 15:52 Cloudy 71 21.7 60 15.6 68 68 SSW 18 30 29.55 1001 10 16.0934 0 0
4:52 pm 16:52 Mostly Cloudy 72 22.2 60 15.6 66 66 SW 23 37 29.52 1000 10 16.0934 0 0
5:52 pm 17:52 Cloudy 73 22.8 58 14.4 59 59 SW 21 33 29.54 1000 10 16.0934 0 0
6:07 pm 18:07 Cloudy 64 17.8 55 12.8 73 73 NW 24 39 29.59 1002 10 16.0934 0 0
6:25 pm 18:25 Cloudy with Rain 61 16.1 54 12.2 78 78 WNW 16 26 29.59 1002 5 8.0467 0.001 0.001
6:52 pm 18:52 Cloudy with Light Rain 59 15 55 12.8 87 87 NW 12 19 29.61 1003 4 6.43736 0.08 2.032
7:08 pm 19:08 Mostly Cloudy 60 15.6 55 12.8 84 84 NW 10 17 29.61 1003 10 16.0934 0.02 0.508
7:52 pm 19:52 Cloudy 61 16.1 48 8.9 63 63 NW 23 37 29.64 1004 10 16.0934 0.02 0.508
8:52 pm 20:52 Cloudy 60 15.6 39 3.9 46 46 NW 23 37 29.69 1006 10 16.0934 0 0
9:52 pm 21:52 Mostly Cloudy 58 14.4 31 -0.6 36 36 WNW 21 33 29.76 1008 10 16.0934 0 0
10:52 pm 22:52 Mostly Cloudy 53 11.7 29 -1.7 40 40 WNW 21 33 29.83 1010 10 16.0934 0 0
11:52 pm 23:52 Partly Cloudy 51 10.6 28 -2.2 41 41 WNW 17 28 29.87 1012 10 16.0934 0 0

Powered by AerisWeather